Regional Weather Roundup
Issued by NWS Mobile, AL

Home | Current Version | Previous Version | Text Only | Print | Product List | Glossary On
Versions: 1 2 3 4 5 6 7 8 9 10 11 12 13 14 15 16 17 18 19 20 21 22 23 24 25 26 27 28 29 30 31 32 33 34 35 36 37 38 39 40 41 42 43 44 45 46 47 48 49 50
000
ASUS44 KMOB 012216
RWRMOB
REGIONAL WEATHER ROUNDUP
NATIONAL WEATHER SERVICE MOBILE AL
500 PM CDT TUE SEP 01 2015

ALZ061>064-012300-
COASTAL ALABAMA


CITY           SKY/WX    TMP DP  RH WIND       PRES   REMARKS
MOBILE REG APT PTSUNNY   90  71  53 SW8       30.03S HX  96
BROOKLEY FIELD PTSUNNY   91  71  51 S9        30.03S HX  97
GULF SHORES    MOCLDY    87  73  61 SW7       30.02S

$$

ALZ051>060-012300-
INTERIOR SOUTHWEST AND SOUTH CENTRAL ALABAMA


CITY           SKY/WX    TMP DP  RH WIND       PRES   REMARKS
ANDALUSIA/OPP  SUNNY     96  65  35 SE3       30.02F HX  98
EVERGREEN      MOSUNNY   92  69  47 NE5       30.02F HX  97
FLORALA        CLEAR     92  64  39 E5        30.04S
GREENVILLE     NOT AVBL

$$

FLZ001>006-012300-
WESTERN FLORIDA PANHANDLE


CITY           SKY/WX    TMP DP  RH WIND       PRES   REMARKS
CRESTVIEW      SUNNY     95  66  38 NE5       30.02F HX  98
DESTIN         SUNNY     91  72  53 S6        30.01S HX  98
DUKE FIELD     MOSUNNY   94  65  37 E7        30.01R HX  97
MARY ESTHER    SUNNY     89  71  55 VRB7      30.00S HX  95
MILTON         MOCLDY    92  70  48 S12       30.01S HX  97
PENSACOLA      MOSUNNY   89  68  49 S10       30.01S
NAS PENSACOLA  PTSUNNY   88  71  57 SW10      30.02R
VALPARAISO     PTSUNNY   92  71  50 S9        30.01R HX  98

$$

...MARINE OBSERVATIONS...

STATION/POSITION TIME  SKY/WX   TEMP    WIND        PRES    VSBY
                                AIR SEA DIR/SP/G
                 (UTC)          (F)     (DEG/KT/KT) (MB)    (MI)
PASCAGOULA       2100            88     200/  7/  9 1016.8F
GRAND BAY        2045            87     200/  7     1018.0
PETIT BOIS ISL   2100            87     190/  6/  8 1017.6F
E DAUPHIN ISLAND 2200            87     190/  5/  7 1016.8R
MIDDLE BAY LIGHT 2100                   200/ 10     1015.9F
USCG MOBILE BAY  2100            90 84  170/  5/  8 1015.5F
STATE DOCKS      2100            91 85              1016.1F
MEAHER PARK      2200            88     190/ 10     1015.2S
FORT MORGAN      2100            86     220/  7/  8 1016.4F
12 S ORANGE BCH  2150            86 87  200/  6/  6 1016.4F
WVE H/P(F/S)=  1/ 5

PENSACOLA BAY    2100            90 87  210/  4/  6 1016.7F
64 S DAUPHIN ISL 2150            84 87   70/  6/  8 1017.5F
WVE H/P(F/S)=  2/ 5

115 SE PENSACOLA 2150            82 86   90/ 10/ 12 1016.6F
WVE H/P(F/S)=  3/ 4

MID GULF/42001   2200            85 87  100/  6/  8 1015.6R
EAST GULF/42003  2150            82 87  320/ 17/ 21 1016.2F
WVE H/P(F/S)=  2/ 5


$$

...NEARBY LOCATIONS

CITY           SKY/WX    TMP DP  RH WIND       PRES   REMARKS
GULFPORT       SUNNY     89  67  47 S8        30.03S
BILOXI         SUNNY     88  70  53 SW12      30.03S
PASCAGOULA     MOSUNNY   88  70  55 VRB6      30.03S
HATTIESBURG    MOSUNNY   95  63  34 SE7       30.02S HX  96
LAUREL         MOSUNNY   91  61  35 S8        30.04S
MERIDIAN       SUNNY     90  67  46 SE6       30.02F
MERIDIAN NAS   MOSUNNY   91  68  46 E8        30.03S HX  95
MONTGOMERY     PTSUNNY   94  66  39 E7        30.03S HX  97
MAXWELL AFB    SUNNY     92  69  46 NW2       30.02F HX  96
TROY           SUNNY     90  68  48 E3        30.04F
FORT RUCKER    PTSUNNY   92  67  43 E6        30.02S HX  95
DALEVILLE      PTSUNNY   92  68  44 E8        30.03S HX  96
DOTHAN         MOSUNNY   90  68  48 E6        30.07F

$$

...OTHER SURROUNDING LOCATIONS...

CITY           SKY/WX    TMP DP  RH WIND       PRES   REMARKS
BIRMINGHAM     MOSUNNY   87  67  51 N3        30.08F
TUSCALOOSA     PTSUNNY   89  67  47 NE7       30.04S
COLUMBUS GA    MOSUNNY   89  67  47 E6        30.05S
PANAMA CITY    NOT AVBL
TALLAHASSEE    LGT RAIN  83  74  74 E9        30.03F
BATON ROUGE    PTSUNNY   91  63  39 E7        30.02S
NEW ORLEANS    PTSUNNY   89  66  46 SE6       30.02S
SLIDELL        MOSUNNY   89  72  56 S9        30.03S HX  96
JACKSON        LGT RAIN  85  70  60 NE15      30.01S
MCCOMB         CLOUDY    91  64  40 SE9       30.02F

$$

...SURROUNDING MARINE OBSERVATIONS...

STATION/POSITION TIME  SKY/WX   TEMP    WIND        PRES    VSBY
                                AIR SEA DIR/SP/G
                 (UTC)          (F)     (DEG/KT/KT) (MB)    (MI)
WAVELAND         2100            85 85  160/  9/ 11 1017.5F
PASCAGOULA RGN A 2100            89     220/  7/  9 1016.5F
PASCAGOULA PORT  2100               86                N/A
GRAND ISLE       2100            86 86  130/  5/  8 1017.4F
SOUTHWEST PASS   2200                                 N/A
PILOT STATION E  2100            89 87  110/ 10/ 12 1017.5F
SHELL BEACH      2100            85 88  130/  8/ 12 1016.6F
PANAMA CITY      2100            87 86  220/  9/ 11 1015.9F
APALACHICOLA     2100            80 86  120/  9/ 12 1017.0F
TYNDALL TOWER C  2200            79      10/  8/  9 1016.5F
S APLCHCLA/42036 2150            82 86   CALM  /  2 1016.1F
WVE H/P(F/S)=  3/ 6


$$




USA.gov is the U.S. government's official web portal to all federal, state and local government web resources and services.